| time (UTC) | temp F | wind direction | speed knots | gust knots | rain 1hr in | rain 24hr in | rain mn in | humidity % | barometer mb |
| 20260503223700 | 62 | 153 | 6.1 | 9.6 | 0.00 | 0.00 | 0.00 | ||
| 20260503223257 | 63 | 153 | 6.1 | 9.6 | 0.00 | 0.00 | 0.00 | ||
| 20260503222856 | 63 | 144 | 6.1 | 10.4 | 0.00 | 0.00 | 0.00 | ||
| 20260503222455 | 63 | 151 | 5.2 | 8.7 | 0.00 | 0.00 | 0.00 | ||
| 20260503222053 | 63 | 151 | 5.2 | 7.0 | 0.00 | 0.00 | 0.00 | ||
| 20260503221644 | 63 | 151 | 6.1 | 9.6 | 0.00 | 0.00 | 0.00 | ||
| 20260503221242 | 63 | 146 | 4.3 | 7.8 | 0.00 | 0.00 | 0.00 | ||
| 20260503220841 | 63 | 151 | 6.1 | 8.7 | 0.00 | 0.00 | 0.00 | ||
| 20260503220540 | 62 | 148 | 4.3 | 7.8 | 0.00 | 0.00 | 0.00 | ||
| 20260503220440 | 62 | 148 | 4.3 | 7.8 | 0.00 | 0.00 | 0.00 | ||
| 20260503220036 | 63 | 136 | 5.2 | 7.8 | 0.00 | 0.00 | 0.00 | ||
| 20260503215638 | 62 | 157 | 4.3 | 6.1 | 0.00 | 0.00 | 0.00 | ||
| 20260503215635 | 63 | 145 | 5.2 | 8.7 | 0.00 | 0.00 | 0.00 | ||
| 20260503215233 | 62 | 157 | 4.3 | 6.1 | 0.00 | 0.00 | 0.00 | ||
| 20260503214832 | 63 | 168 | 5.2 | 7.0 | 0.00 | 0.00 | 0.00 | ||
| 20260503214431 | 63 | 151 | 3.5 | 6.1 | 0.00 | 0.00 | 0.00 | ||
| 20260503214027 | 63 | 157 | 3.5 | 4.3 | 0.00 | 0.00 | 0.00 | ||
| 20260503213620 | 63 | 157 | 3.5 | 7.0 | 0.00 | 0.00 | 0.00 | ||
| 20260503213218 | 64 | 158 | 3.5 | 5.2 | 0.00 | 0.00 | 0.00 | ||
| 20260503212817 | 64 | 176 | 3.5 | 6.1 | 0.00 | 0.00 | 0.00 | ||
| 20260503212013 | 64 | 157 | 2.6 | 4.3 | 0.00 | 0.00 | 0.00 | ||
| 20260503211612 | 64 | 157 | 3.5 | 5.2 | 0.00 | 0.00 | 0.00 | ||
| 20260503211210 | 64 | 157 | 3.5 | 7.8 | 0.00 | 0.00 | 0.00 | ||
| 20260503210808 | 63 | 178 | 3.5 | 4.3 | 0.00 | 0.00 | 0.00 | ||
| 20260503210407 | 64 | 170 | 6.1 | 7.8 | 0.00 | 0.00 | 0.00 | ||
| 20260503210006 | 63 | 154 | 3.5 | 6.1 | 0.00 | 0.00 | 0.00 | ||
| 20260503205557 | 63 | 135 | 3.5 | 6.1 | 0.00 | 0.00 | 0.00 | ||
| 20260503205154 | 63 | 135 | 3.5 | 5.2 | 0.00 | 0.00 | 0.00 | ||
| 20260503204753 | 64 | 127 | 4.3 | 5.2 | 0.00 | 0.00 | 0.00 | ||
| 20260503204352 | 64 | 135 | 3.5 | 6.1 | 0.00 | 0.00 | 0.00 | ||
| 20260503203950 | 64 | 135 | 3.5 | 5.2 | 0.00 | 0.00 | 0.00 | ||
| 20260503203549 | 64 | 135 | 3.5 | 5.2 | 0.00 | 0.00 | 0.00 | ||
| 20260503203146 | 64 | 141 | 3.5 | 6.1 | 0.00 | 0.00 | 0.00 | ||
| 20260503202745 | 64 | 137 | 2.6 | 6.1 | 0.00 | 0.00 | 0.00 | ||
| 20260503202345 | 64 | 145 | 4.3 | 7.0 | 0.00 | 0.00 | 0.00 | ||
| 20260503201943 | 64 | 147 | 3.5 | 5.2 | 0.00 | 0.00 | 0.00 | ||
| 20260503201533 | 64 | 141 | 3.5 | 7.8 | 0.00 | 0.00 | 0.00 | ||
| 20260503201132 | 65 | 147 | 4.3 | 7.0 | 0.00 | 0.00 | 0.00 | ||
| 20260503200731 | 65 | 140 | 4.3 | 6.1 | 0.00 | 0.00 | 0.00 | ||
| 20260503200330 | 65 | 154 | 3.5 | 6.1 | 0.00 | 0.00 | 0.00 | ||
| 20260503195927 | 65 | 157 | 4.3 | 7.0 | 0.00 | 0.00 | 0.00 | ||
| 20260503195526 | 65 | 150 | 4.3 | 7.0 | 0.00 | 0.00 | 0.00 | ||
| 20260503195124 | 66 | 156 | 5.2 | 7.8 | 0.00 | 0.00 | 0.00 | ||
| 20260503194723 | 66 | 157 | 5.2 | 7.8 | 0.00 | 0.00 | 0.00 | ||
| 20260503194321 | 66 | 157 | 4.3 | 7.0 | 0.00 | 0.00 | 0.00 | ||
| 20260503193919 | 67 | 156 | 4.3 | 7.8 | 0.00 | 0.00 | 0.00 | ||
| 20260503193511 | 67 | 165 | 5.2 | 7.0 | 0.00 | 0.00 | 0.00 | ||
| 20260503193109 | 68 | 161 | 5.2 | 8.7 | 0.00 | 0.00 | 0.00 | ||
| 20260503192708 | 68 | 165 | 4.3 | 6.1 | 0.00 | 0.00 | 0.00 | ||
| 20260503192306 | 68 | 174 | 6.1 | 8.7 | 0.00 | 0.00 | 0.00 | ||
| 20260503191904 | 69 | 191 | 5.2 | 7.0 | 0.00 | 0.00 | 0.00 | ||
| 20260503191503 | 69 | 172 | 6.1 | 8.7 | 0.00 | 0.00 | 0.00 | ||
| 20260503191101 | 69 | 191 | 5.2 | 7.8 | 0.00 | 0.00 | 0.00 | ||
| 20260503190659 | 69 | 186 | 5.2 | 8.7 | 0.00 | 0.00 | 0.00 | ||
| 20260503190258 | 69 | 202 | 4.3 | 6.1 | 0.00 | 0.00 | 0.00 | ||
| 20260503185856 | 69 | 192 | 6.1 | 7.8 | 0.00 | 0.00 | 0.00 | ||
| 20260503185448 | 70 | 192 | 6.1 | 8.7 | 0.00 | 0.00 | 0.00 | ||
| 20260503185045 | 70 | 182 | 6.1 | 9.6 | 0.00 | 0.00 | 0.00 | ||
| 20260503184644 | 70 | 187 | 7.0 | 9.6 | 0.00 | 0.00 | 0.00 | ||
| 20260503184243 | 70 | 198 | 7.8 | 11.3 | 0.00 | 0.00 | 0.00 | ||
| 20260503183842 | 70 | 194 | 7.8 | 10.4 | 0.00 | 0.00 | 0.00 | ||
| 20260503183439 | 70 | 191 | 7.0 | 8.7 | 0.00 | 0.00 | 0.00 | ||
| 20260503183038 | 70 | 193 | 6.1 | 8.7 | 0.00 | 0.00 | 0.00 | ||
| 20260503182637 | 71 | 189 | 6.1 | 8.7 | 0.00 | 0.00 | 0.00 | ||
| 20260503182236 | 71 | 185 | 6.1 | 7.8 | 0.00 | 0.00 | 0.00 | ||
| 20260503181834 | 71 | 191 | 7.0 | 8.7 | 0.00 | 0.00 | 0.00 | ||
| 20260503181425 | 71 | 180 | 5.2 | 7.8 | 0.00 | 0.00 | 0.00 | ||
| 20260503181023 | 72 | 192 | 6.1 | 7.8 | 0.00 | 0.00 | 0.00 | ||
| 20260503180622 | 72 | 187 | 6.1 | 8.7 | 0.00 | 0.00 | 0.00 | ||
| 20260503180221 | 72 | 180 | 3.5 | 6.1 | 0.00 | 0.00 | 0.00 | ||
| 20260503175818 | 72 | 193 | 7.0 | 10.4 | 0.00 | 0.00 | 0.00 | ||
| 20260503175416 | 73 | 180 | 6.1 | 8.7 | 0.00 | 0.00 | 0.00 | ||
| 20260503175015 | 73 | 182 | 6.1 | 8.7 | 0.00 | 0.00 | 0.00 | ||
| 20260503174614 | 73 | 192 | 7.0 | 12.2 | 0.00 | 0.00 | 0.00 | ||
| 20260503174211 | 73 | 183 | 7.0 | 9.6 | 0.00 | 0.00 | 0.00 | ||
| 20260503173810 | 74 | 178 | 7.8 | 8.7 | 0.00 | 0.00 | 0.00 | ||
| 20260503173402 | 74 | 181 | 7.8 | 10.4 | 0.00 | 0.00 | 0.00 | ||
| 20260503173000 | 75 | 171 | 4.3 | 7.0 | 0.00 | 0.00 | 0.00 | ||
| 20260503172558 | 75 | 172 | 7.0 | 9.6 | 0.00 | 0.00 | 0.00 | ||
| 20260503172157 | 75 | 172 | 7.0 | 11.3 | 0.00 | 0.00 | 0.00 | ||
| 20260503171755 | 75 | 183 | 7.8 | 10.4 | 0.00 | 0.00 | 0.00 | ||
| 20260503171354 | 75 | 170 | 7.8 | 11.3 | 0.00 | 0.00 | 0.00 | ||
| 20260503170952 | 76 | 169 | 6.1 | 8.7 | 0.00 | 0.00 | 0.00 | ||
| 20260503170550 | 76 | 182 | 7.0 | 12.2 | 0.00 | 0.00 | 0.00 | ||
| 20260503170149 | 76 | 171 | 7.0 | 8.7 | 0.00 | 0.00 | 0.00 | ||
| 20260503160112 | 80 | 198 | 8.7 | 12.2 | 0.00 | 0.00 | 0.00 | ||
| 20260503150841 | 81 | 225 | 4.3 | 9.6 | 0.00 | 0.00 | 0.00 | ||
| 20260503150440 | 80 | 225 | 1.7 | 3.5 | 0.00 | 0.00 | 0.00 | ||
| 20260503131134 | 79 | 196 | 2.6 | 6.1 | 0.00 | 0.00 | 0.00 | ||
| 20260503130731 | 80 | 188 | 3.5 | 6.1 | 0.00 | 0.00 | 0.00 | ||
| 20260503130330 | 79 | 201 | 6.1 | 10.4 | 0.00 | 0.00 | 0.00 | ||
| 20260503110620 | 76 | 199 | 2.6 | 4.3 | 0.00 | 0.00 | 0.00 | ||
| 20260503110220 | 77 | 201 | 6.1 | 8.7 | 0.00 | 0.00 | 0.00 | ||
| 20260503100142 | 75 | 164 | 3.5 | 8.7 | 0.00 | 0.00 | 0.00 | ||
| 20260503090511 | 73 | 136 | 7.8 | 12.2 | 0.00 | 0.00 | 0.00 | ||
| 20260503090110 | 73 | 108 | 7.0 | 9.6 | 0.00 | 0.00 | 0.00 | ||
| 20260503081243 | 70 | 123 | 7.8 | 10.4 | 0.00 | 0.00 | 0.00 | ||
| 20260503080835 | 69 | 131 | 8.7 | 12.2 | 0.00 | 0.00 | 0.00 | ||
| 20260503080433 | 69 | 135 | 9.6 | 13.9 | 0.00 | 0.00 | 0.00 | ||
| 20260503072811 | 68 | 146 | 7.0 | 11.3 | 0.00 | 0.00 | 0.00 | ||
| 20260503072408 | 68 | 136 | 9.6 | 12.2 | 0.00 | 0.00 | 0.00 | ||
| 20260503072007 | 68 | 139 | 10.4 | 16.5 | 0.00 | 0.00 | 0.00 | ||
| 20260503071606 | 68 | 138 | 7.0 | 11.3 | 0.00 | 0.00 | 0.00 | ||
| 20260503071204 | 68 | 143 | 8.7 | 12.2 | 0.00 | 0.00 | 0.00 | ||
| 20260503070802 | 70 | 131 | 8.7 | 15.6 | 0.00 | 0.00 | 0.00 | ||
| 20260503070400 | 73 | 149 | 9.6 | 13.9 | 0.00 | 0.00 | 0.00 | ||
| 20260503060323 | 65 | 140 | 8.7 | 14.8 | 0.00 | 0.00 | 0.00 | ||
| 20260503055118 | 65 | 127 | 8.7 | 13.0 | 0.00 | 0.00 | 0.00 | ||
| 20260503054717 | 65 | 129 | 8.7 | 10.4 | 0.00 | 0.00 | 0.00 | ||
| 20260503054315 | 65 | 138 | 7.0 | 12.2 | 0.00 | 0.00 | 0.00 | ||
| 20260503053913 | 65 | 132 | 7.0 | 10.4 | 0.00 | 0.00 | 0.00 | ||
| 20260503053512 | 65 | 148 | 7.0 | 9.6 | 0.00 | 0.00 | 0.00 | ||
| 20260503053110 | 64 | 150 | 7.8 | 11.3 | 0.00 | 0.00 | 0.00 | ||
| 20260503052702 | 64 | 136 | 7.8 | 12.2 | 0.00 | 0.00 | 0.00 | ||
| 20260503052259 | 64 | 136 | 6.1 | 8.7 | 0.00 | 0.00 | 0.00 | ||
| 20260503051858 | 64 | 149 | 6.1 | 10.4 | 0.00 | 0.00 | 0.00 | ||
| 20260503051457 | 64 | 140 | 6.1 | 9.6 | 0.00 | 0.00 | 0.00 | ||
| 20260503051056 | 63 | 141 | 6.1 | 11.3 | 0.00 | 0.00 | 0.00 | ||
| 20260503050653 | 63 | 142 | 7.8 | 11.3 | 0.00 | 0.00 | 0.00 | ||
| 20260503050252 | 63 | 138 | 7.0 | 8.7 | 0.00 | 0.00 | 0.00 | ||
| 20260503045851 | 63 | 145 | 6.1 | 8.7 | 0.00 | 0.00 | 0.00 | ||
| 20260503045450 | 63 | 144 | 6.1 | 8.7 | 0.00 | 0.00 | 0.00 | ||
| 20260503045047 | 62 | 145 | 6.1 | 9.6 | 0.00 | 0.00 | 0.00 | ||
| 20260503044639 | 62 | 132 | 6.1 | 10.4 | 0.00 | 0.00 | 0.00 | ||
| 20260503044237 | 62 | 131 | 6.1 | 8.7 | 0.00 | 0.00 | 0.00 | ||
| 20260503043836 | 61 | 143 | 7.0 | 8.7 | 0.00 | 0.00 | 0.00 | ||
| 20260503043435 | 61 | 138 | 7.0 | 12.2 | 0.00 | 0.00 | 0.00 | ||
| 20260503043032 | 61 | 140 | 6.1 | 9.6 | 0.00 | 0.00 | 0.00 | ||
| 20260503042631 | 60 | 151 | 6.1 | 7.8 | 0.00 | 0.00 | 0.00 | ||
| 20260503042229 | 61 | 145 | 6.1 | 8.7 | 0.00 | 0.00 | 0.00 | ||
| 20260503041828 | 60 | 139 | 4.3 | 7.8 | 0.00 | 0.00 | 0.00 | ||
| 20260503041426 | 60 | 127 | 7.0 | 11.3 | 0.00 | 0.00 | 0.00 | ||
| 20260503041024 | 60 | 146 | 4.3 | 7.0 | 0.00 | 0.00 | 0.00 | ||
| 20260503040616 | 60 | 142 | 5.2 | 9.6 | 0.00 | 0.00 | 0.00 | ||
| 20260503040214 | 59 | 136 | 5.2 | 8.7 | 0.00 | 0.00 | 0.00 | ||
| 20260503035812 | 59 | 121 | 4.3 | 7.0 | 0.00 | 0.00 | 0.00 | ||
| 20260503035411 | 59 | 129 | 5.2 | 8.7 | 0.00 | 0.00 | 0.00 | ||
| 20260503035009 | 58 | 133 | 6.1 | 8.7 | 0.00 | 0.00 | 0.00 | ||
| 20260503034608 | 58 | 135 | 4.3 | 7.8 | 0.00 | 0.00 | 0.00 | ||
| 20260503034205 | 58 | 153 | 5.2 | 8.7 | 0.00 | 0.00 | 0.00 | ||
| 20260503033804 | 57 | 129 | 5.2 | 8.7 | 0.00 | 0.00 | 0.00 | ||
| 20260503033403 | 58 | 140 | 4.3 | 8.7 | 0.00 | 0.00 | 0.00 | ||
| 20260503033001 | 58 | 131 | 5.2 | 8.7 | 0.00 | 0.00 | 0.00 | ||
| 20260503032553 | 58 | 138 | 5.2 | 7.0 | 0.00 | 0.00 | 0.00 | ||
| 20260503032150 | 57 | 124 | 5.2 | 7.8 | 0.00 | 0.00 | 0.00 | ||
| 20260503031749 | 58 | 129 | 5.2 | 8.7 | 0.00 | 0.00 | 0.00 | ||
| 20260503031348 | 57 | 125 | 5.2 | 7.8 | 0.00 | 0.00 | 0.00 | ||
| 20260503030947 | 57 | 121 | 4.3 | 7.0 | 0.00 | 0.00 | 0.00 | ||
| 20260503030545 | 58 | 126 | 5.2 | 7.0 | 0.00 | 0.00 | 0.00 | ||
| 20260503030143 | 57 | 123 | 6.1 | 8.7 | 0.00 | 0.00 | 0.00 | ||
| 20260503025742 | 57 | 136 | 5.2 | 7.8 | 0.00 | 0.00 | 0.00 | ||
| 20260503025341 | 57 | 135 | 6.1 | 7.8 | 0.00 | 0.00 | 0.00 | ||
| 20260503024938 | 57 | 153 | 5.2 | 7.0 | 0.00 | 0.00 | 0.00 | ||
| 20260503024530 | 57 | 156 | 5.2 | 7.0 | 0.00 | 0.00 | 0.00 | ||
| 20260503024128 | 57 | 142 | 4.3 | 6.1 | 0.00 | 0.00 | 0.00 | ||
| 20260503023727 | 57 | 154 | 4.3 | 5.2 | 0.00 | 0.00 | 0.00 | ||
| 20260503023325 | 57 | 131 | 4.3 | 7.0 | 0.00 | 0.00 | 0.00 | ||
| 20260503022923 | 57 | 141 | 4.3 | 6.1 | 0.00 | 0.00 | 0.00 | ||
| 20260503022522 | 57 | 141 | 5.2 | 7.8 | 0.00 | 0.00 | 0.00 | ||
| 20260503022120 | 57 | 146 | 6.1 | 7.8 | 0.00 | 0.00 | 0.00 | ||
| 20260503021719 | 57 | 140 | 6.1 | 8.7 | 0.00 | 0.00 | 0.00 | ||
| 20260503021317 | 57 | 150 | 6.1 | 7.0 | 0.00 | 0.00 | 0.00 | ||
| 20260503020915 | 57 | 154 | 4.3 | 6.1 | 0.00 | 0.00 | 0.00 | ||
| 20260503020507 | 57 | 159 | 3.5 | 5.2 | 0.00 | 0.00 | 0.00 | ||
| 20260503020105 | 58 | 150 | 4.3 | 7.0 | 0.00 | 0.00 | 0.00 | ||
| 20260503015703 | 58 | 143 | 6.1 | 7.8 | 0.00 | 0.00 | 0.00 | ||
| 20260503015305 | 58 | 150 | 5.2 | 7.8 | 0.00 | 0.00 | 0.00 | ||
| 20260503014901 | 58 | 136 | 4.3 | 7.8 | 0.00 | 0.00 | 0.00 | ||
| 20260503014500 | 58 | 126 | 6.1 | 7.8 | 0.00 | 0.00 | 0.00 | ||
| 20260503014057 | 58 | 137 | 6.1 | 10.4 | 0.00 | 0.00 | 0.00 | ||
| 20260503013656 | 58 | 136 | 6.1 | 11.3 | 0.00 | 0.00 | 0.00 | ||
| 20260503013255 | 59 | 132 | 4.3 | 7.8 | 0.00 | 0.00 | 0.00 | ||
| 20260503012853 | 58 | 117 | 6.1 | 13.9 | 0.00 | 0.00 | 0.00 | ||
| 20260503012444 | 58 | 136 | 6.1 | 8.7 | 0.00 | 0.00 | 0.00 | ||
| 20260503012042 | 58 | 120 | 5.2 | 7.0 | 0.00 | 0.00 | 0.00 | ||
| 20260503011641 | 58 | 134 | 4.3 | 9.6 | 0.00 | 0.00 | 0.00 | ||
| 20260503011241 | 57 | 169 | 2.6 | 7.8 | 0.00 | 0.00 | 0.00 | ||
| 20260503010837 | 58 | 143 | 4.3 | 7.0 | 0.00 | 0.00 | 0.00 | ||
| 20260503010435 | 58 | 123 | 5.2 | 8.7 | 0.00 | 0.00 | 0.00 | ||
| 20260503010033 | 58 | 132 | 6.1 | 7.8 | 0.00 | 0.00 | 0.00 | ||
| 20260503005632 | 58 | 120 | 5.2 | 8.7 | 0.00 | 0.00 | 0.00 | ||
| 20260503005231 | 58 | 121 | 5.2 | 7.8 | 0.00 | 0.00 | 0.00 | ||
| 20260503004828 | 58 | 115 | 3.5 | 5.2 | 0.00 | 0.00 | 0.00 | ||
| 20260503004420 | 58 | 121 | 4.3 | 7.0 | 0.00 | 0.00 | 0.00 | ||
| 20260503004018 | 58 | 120 | 4.3 | 6.1 | 0.00 | 0.00 | 0.00 | ||
| 20260503003617 | 58 | 124 | 5.2 | 7.8 | 0.00 | 0.00 | 0.00 | ||
| 20260503003215 | 59 | 138 | 4.3 | 7.8 | 0.00 | 0.00 | 0.00 | ||
| 20260503002813 | 58 | 137 | 5.2 | 9.6 | 0.00 | 0.00 | 0.00 | ||
| 20260503002011 | 58 | 120 | 4.3 | 6.1 | 0.00 | 0.00 | 0.00 | ||
| 20260503001608 | 58 | 129 | 4.3 | 7.8 | 0.00 | 0.00 | 0.00 | ||
| 20260503001207 | 58 | 136 | 2.6 | 5.2 | 0.00 | 0.00 | 0.00 | ||
| 20260503000806 | 58 | 122 | 2.6 | 5.2 | 0.00 | 0.00 | 0.00 | ||
| 20260503000400 | 58 | 125 | 4.3 | 7.0 | 0.00 | 0.00 | 0.00 | ||
| 20260502235956 | 58 | 125 | 3.5 | 7.0 | 0.00 | 0.00 | 0.00 | ||
| 20260502235554 | 58 | 118 | 5.2 | 7.0 | 0.00 | 0.00 | 0.00 | ||
| 20260502235153 | 58 | 117 | 4.3 | 7.0 | 0.00 | 0.00 | 0.00 | ||
| 20260502234751 | 58 | 117 | 3.5 | 6.1 | 0.00 | 0.00 | 0.00 | ||
| 20260502234350 | 58 | 115 | 4.3 | 7.0 | 0.00 | 0.00 | 0.00 | ||
| 20260502233946 | 59 | 118 | 5.2 | 8.7 | 0.00 | 0.00 | 0.00 | ||
| 20260502233545 | 58 | 105 | 5.2 | 7.8 | 0.00 | 0.00 | 0.00 | ||
| 20260502233144 | 59 | 108 | 7.0 | 7.8 | 0.00 | 0.00 | 0.00 | ||
| 20260502232742 | 59 | 106 | 6.1 | 7.0 | 0.00 | 0.00 | 0.00 | ||
| 20260502232332 | 59 | 114 | 6.1 | 8.7 | 0.00 | 0.00 | 0.00 | ||
| 20260502231931 | 59 | 109 | 6.1 | 7.8 | 0.00 | 0.00 | 0.00 | ||
| 20260502231530 | 60 | 108 | 7.0 | 8.7 | 0.00 | 0.00 | 0.00 | ||
| 20260502231128 | 60 | 112 | 6.1 | 8.7 | 0.00 | 0.00 | 0.00 | ||
| 20260502230725 | 59 | 107 | 6.1 | 8.7 | 0.00 | 0.00 | 0.00 | ||
| 20260502230324 | 59 | 108 | 7.0 | 9.6 | 0.00 | 0.00 | 0.00 | ||
| 20260502225922 | 59 | 112 | 5.2 | 7.8 | 0.00 | 0.00 | 0.00 | ||
| 20260502225521 | 58 | 125 | 4.3 | 7.8 | 0.00 | 0.00 | 0.00 | ||
| 20260502225120 | 57 | 135 | 1.7 | 4.3 | 0.00 | 0.00 | 0.00 | ||
| 20260502224717 | 58 | 138 | 3.5 | 6.1 | 0.00 | 0.00 | 0.00 | ||
| 20260502224309 | 59 | 135 | 2.6 | 3.5 | 0.00 | 0.00 | 0.00 | ||
| 20260502223908 | 59 | 117 | 3.5 | 4.3 | 0.00 | 0.00 | 0.00 |